User: anonymous   Login
Location: Mentone
(34.5413°N, 85.5351°W)
Time: 03:55:07
(UTC-06:00)
Language:

Cosmos 1703 - Orbit

View from above orbital plane
View from above orbital plane
View from above satellite
View from above satellite

Ground track
Ground track

The orbit data is extracted from the following two-line orbital elements,

1 16262U 85108A   16341.80994846  .00000993  00000-0  59101-4 0  9993
2 16262  82.4847  78.8464 0010624 212.0368 148.0217 15.10112759689866
Epoch (UTC): 06 December 2016 19:26:19
Eccentricity: 0.0010624
inclination: 82.4847°
perigee height: 528 km
apogee height: 543 km
right ascension of ascending node: 78.8464°
argument of perigee: 212.0368°
revolutions per day: 15.10112759
mean anomaly at epoch: 148.0217°
orbit number at epoch: 68986

The dashed part of the orbit path shows where the satellite is in the earth's shadow,  

DLR